Location: Bushrod
(6.3500°N, 10.7833°W)
Time: 02:17:05
(UTC+00:00)

Envisat - Pass Details

Date: 17 September 2019
Orbit: 764 x 766 km, 98.1° (Epoch: 15 October)

Event Time Altitude Azimuth Distance (km) Brightness Sun altitude
Rises 19:23:07 0° 172° (S) 3,226 6.1 -11.1°
Reaches altitude 10° 19:25:25 10° 174° (S) 2,299 5.4 -11.6°
Maximum altitude 19:30:28 72° 258° (WSW) 803 3.3 -12.9°
Drops below altitude 10° 19:35:31 10° 342° (NNW) 2,295 5.7 -14.1°
Sets 19:37:49 0° 345° (NNW) 3,219 6.5 -14.7°
